Regional Weather Roundup
Issued by NWS Charleston, SC

Current Version | Previous Version | Graphics & Text | Print | Product List | Glossary On
Versions: 1 2 3 4 5 6 7 8 9 10 11 12 13 14 15 16 17 18 19 20 21 22 23 24 25 26 27 28 29 30 31 32 33 34 35 36 37 38 39 40 41 42 43 44 45 46 47 48 49 50
000 ASUS42 KCHS 070712 RWRCHS REGIONAL WEATHER ROUNDUP NATIONAL WEATHER SERVICE CHARLESTON SC 300 AM EDT TUE JUL 07 2015 NOTE: "FAIR" INDICATES FEW OR NO CLOUDS BELOW 12,000 FEET WITH NO SIGNIFICANT WEATHER AND/OR OBSTRUCTIONS TO VISIBILITY. NOT ALL STATIONS ARE QUALITY CONTROLLED BY THE NATIONAL WEATHER SERVICE. USE DATA WITH CAUTION...ESPECIALLY DEWPOINT OBSERVATIONS. SCZ027-030-031-034>040-042>050-070800- ...SOUTHEAST SOUTH CAROLINA... CITY SKY/WX TMP DP RH WIND PRES REMARKS N CHARLESTON PTCLDY 76 72 87 W6 30.11R WATERFRONT PAR N/A 79 75 87 VRB2 30.07S MOUNT PLEASANT LGT RAIN 73 73 100 CALM 30.10S JOHNS ISLAND FAIR 77 75 94 SW3 30.10S PINOPOLIS NOT AVBL MONCKS CORNER FAIR 73 72 94 CALM 30.10S SUMMERVILLE FAIR 73 73 100 CALM 30.11S BEAUFORT MCAS MOCLDY 76 73 91 SW5 30.10S BEAUFORT ARPT FAIR 77 72 83 CALM 30.10R HILTON HEAD IS PTCLDY 77 73 88 SW5 30.11S WALTERBORO MOSUNNY 72 70 94 CALM 30.11S ALLENDALE FAIR 73 72 94 CALM 30.10R ...SOUTHERN MIDLANDS AND PEE DEE... CITY SKY/WX TMP DP RH WIND PRES REMARKS GEORGETOWN NOT AVBL KINGSTREE NOT AVBL ORANGEBURG CLEAR 73 71 93 CALM 30.11R BARNWELL FAIR 73 72 94 CALM 30.11S AIKEN NOT AVBL MANNING FAIR 73 72 94 SW3 30.10S COLUMBIA PTCLDY 75 70 84 SW3 30.09S SUMTER CLEAR 74 72 92 SW6 30.08R FLORENCE CLEAR 75 73 93 SW3 30.10R MYRTLE BEACH CLEAR 75 70 83 CALM N/A N MYRTLE BEACH CLEAR 77 72 84 W5 30.10S $$ GAZ063-065-086>088-099>101-113>116-118-119-134>141-150-070800- ...SOUTHEAST GEORGIA... CITY SKY/WX TMP DP RH WIND PRES REMARKS SAVANNAH ARPT PTCLDY 73 70 90 W3 30.11S HUNTER AAF PTCLDY 73 73 100 W2 30.08S FORT STEWART MOCLDY 74 71 91 SW3 30.09S STATESBORO NOT AVBL SYLVANIA MOSUNNY 75 74 98 CALM 30.12R CLAXTON CLOUDY 75 73 94 CALM 30.11R ...CSRA...CENTRAL AND FAR SOUTHEAST GEORGIA... CITY SKY/WX TMP DP RH WIND PRES REMARKS THOMSON CLEAR 73 73 100 CALM 30.15S AUGUSTA-BUSH MOCLDY 72 70 93 CALM 30.09S AUGUSTA-DANIEL CLEAR 77 70 79 CALM 30.11R SWAINSBORO FAIR N/A N/A N/A SE3 30.12R VIDALIA PTCLDY 72 70 94 CALM 30.12R EASTMAN FAIR 71 71 100 CALM 30.14R FOG HAZLEHURST PTSUNNY 75 75 100 CALM 30.11R ALMA PTCLDY 72 71 97 CALM 30.11S WAYCROSS CLEAR 76 75 97 CALM 30.11S JESUP FAIR 75 73 94 CALM 30.11S BAXLEY FAIR 73 72 94 CALM 30.11S BRUNSWICK MOCLDY 73 72 94 SW3 30.11S SAINT SIMONS MOCLDY 76 71 85 SW9 30.10S $$ SCZ027-028-034-036>038-045-046-048>050-GAZ119-141-070800- ...LAKE AND SUPPLEMENTAL COASTAL OBSERVATIONS... STATION/POSITION TIME TEMP WIND PRES WAVE SWELL AIR SEA DIR/SP/G HT/PER HT/PER/DIR (UTC) (F) (DEG/KT/KT) (MB) (FT/S) (FT/S/D) UPR LAKE MARION NOT AVBL WINYAH BAY NOT AVBL LAKE MURRAY 0600 80 230/ 7/ 9 1018.3S ACE BASIN NERRS NOT AVBL FORT PULASKI 0600 78 83 240/ 3/ 4 1019.7F SAPELO ISLAND 0600 78 230/ 7 1019.0S $$ ANZ835-935-AMZ111-154-330-350-352-354-370-450-454-472-070800- ...C-MAN AND BUOY OBSERVATIONS... STATION/POSITION TIME TEMP WIND PRES WAVE SWELL AIR SEA DIR/SP/G HT/PER HT/PER/DIR (UTC) (F) (DEG/KT/KT) (MB) (FT/S) (FT/S/D) BUOY 41004 0650 81 83 220/ 12/ 14 1018.8S 3/ 8 2/ 8 BUOY 41008 0650 78 78 230/ 8/ 10 1019.5 2/ 9 2/120/ 9 FOLLY BEACH CMAN 0600 80 230/ 10/ 12 1019.2S CAPERS NEARSHORE 0608 81 240/ 14/ 17 1019.2S FRIPP NEARSHORE 0600 81 240/ 14/ 16 1018.7S STATION/POSITION TIME TEMP WIND PRES WAVE SWELL AIR SEA DIR/SP/G HT/PER HT/PER/DIR (UTC) (F) (DEG/KT/KT) (MB) (FT/S) (FT/S/D) 5E ST. MARYS GA 0621 78 N/A 2/ 9 FRYING PAN BUOY 0650 81 79 220/ 12/ 14 1019.8R 3/ 9 2/140/ 9 BUOY 41025 0650 81 82 230/ 16/ 19 1019.3R 3/ 9 2/130/ 9 CAPE LOOKOUT NC 0600 79 210/ 9/ 10 1019.3F BUOY 41002 0650 82 80 210/ 10/ 10 1021.5F 4/ 9 3/130/ 9 BUOY 41010 0620 83 83 140/ 10/ 12 1019.7F ST AUGUSTINE FL 0700 72 71 240/ 6/ 7 1020.6R $$

USA.gov is the U.S. government's official web portal to all federal, state and local government web resources and services.